Location: Ab? ar R?sh Ba?r?
(24.1861°N, 32.8847°E)
Time: 22:38:12
(UTC+00:00)

Cosmos 304 Rocket - Pass Details

Date: 24 October 2021
Orbit: 678 x 688 km, 74.0° (Epoch: 05 December)

Event Time Altitude Azimuth Distance (km) Brightness Sun altitude
Rises 15:33:34 0° 191° (S) 3,018 7.4 -5.1°
Reaches altitude 10° 15:35:51 10° 190° (S) 2,106 6.6 -5.6°
Maximum altitude 15:40:35 81° 104° (ESE) 691 3.7 -6.7°
Drops below altitude 10° 15:45:21 10° 17° (NNE) 2,119 6.0 -7.7°
Sets 15:47:40 0° 16° (NNE) 3,038 6.8 -8.3°
